Hutchinson, MN

11:29 PM CDT on August 28, 2016 (GMT -0500)
Hutchinson Municipal-Butler

Weather History for KHCD - August, 2014

Change the Weather History Date:

Saturday, August 30, 2014

  Actual Average Record
Temperature  
Mean Temperature 68 °F -  
Max Temperature 75 °F 80 °F 92 °F (1961)
Min Temperature 61 °F 56 °F 42 °F (2003)
Cooling Degree Days 3    
Growing Degree Days 18 (Base 50)    
Moisture  
Dew Point 66 °F    
Average Humidity 93    
Maximum Humidity 100    
Minimum Humidity 76    
Precipitation  
Precipitation 0.58 in - - ()
Sea Level Pressure  
Sea Level Pressure 29.86 in    
Wind  
Wind Speed 4 mph (West)    
Max Wind Speed 9 mph    
Max Gust Speed -    
Visibility 7 miles    
Events Rain    
Averages and records for this station are not official NWS values.
T = Trace of Precipitation, MM = Missing Value Source: NWS Daily Summary

Daily Weather History Graph

Daily Weather History Graph

Search for Another Location

Airport or City:

Trip Planner

Search our weather history database for the weather conditions in past years. The results will help you decide how hot, cold, wet, or windy it might be!

Date:

Astronomy

Aug. 30, 2014 Rise Set
Actual Time 6:37 AM CDT 7:58 PM CDT
Civil Twilight 6:06 AM CDT 8:28 PM CDT
Nautical Twilight 5:30 AM CDT 9:04 PM CDT
Astronomical Twilight 4:51 AM CDT 9:43 PM CDT
Moon 11:39 AM CDT (8/30) 10:18 PM CDT (8/30)
Length of Visible Light 14h 21m
Length of Day
13h 20m
Waxing Crescent, 23% of the Moon is Illuminated
Aug 30
Waxing Crescent
Sep 2
First Quarter
Sep 8
Full
Sep 15
Last Quarter
Sep 24
New

Hourly Weather History & Observations

Time (CDT) Temp. Dew Point Humidity Pressure Visibility Wind Dir Wind Speed Gust Speed Precip Events Conditions
12:12 AM 66.7 °F 66.4 °F 99% 29.80 in 10.0 mi Calm Calm - N/A   Scattered Clouds
12:32 AM 66.7 °F 66.6 °F 99% 29.80 in 10.0 mi Calm Calm - N/A   Mostly Cloudy
12:53 AM 68.2 °F 68.0 °F 99% 29.80 in 10.0 mi NE 4.6 mph - N/A   Overcast
1:12 AM 68.5 °F 68.4 °F 99% 29.80 in 7.0 mi NE 4.6 mph - N/A   Overcast
1:32 AM 68.7 °F 68.2 °F 98% 29.80 in 7.0 mi WNW 3.5 mph - N/A   Mostly Cloudy
1:53 AM 68.2 °F 68.0 °F 99% 29.80 in 7.0 mi Calm Calm - N/A   Mostly Cloudy
2:13 AM 68.2 °F 68.0 °F 99% 29.79 in 7.0 mi West 3.5 mph - N/A   Overcast
2:32 AM 68.0 °F 67.8 °F 99% 29.80 in 7.0 mi WNW 4.6 mph - N/A   Overcast
3:13 AM 68.0 °F 68.0 °F 100% 29.81 in 4.0 mi WNW 4.6 mph - N/A   Overcast
3:32 AM 67.6 °F 67.6 °F 100% 29.81 in 4.0 mi WNW 4.6 mph - 0.01 in   Overcast
3:53 AM 67.8 °F 67.6 °F 99% 29.81 in 4.0 mi Calm Calm - 0.01 in   Overcast
4:13 AM 67.8 °F 67.8 °F 100% 29.82 in 4.0 mi WNW 5.8 mph - N/A   Overcast
4:33 AM 67.6 °F 67.5 °F 99% 29.82 in 7.0 mi NW 4.6 mph - N/A   Overcast
4:52 AM 67.1 °F 66.7 °F 99% 29.82 in 5.0 mi NW 3.5 mph - N/A   Overcast
5:12 AM 66.6 °F 66.4 °F 99% 29.83 in 4.0 mi Calm Calm - N/A   Overcast
5:33 AM 66.2 °F 66.2 °F 100% 29.83 in 4.0 mi Calm Calm - N/A   Overcast
5:53 AM 66.2 °F 66.2 °F 100% 29.83 in 4.0 mi Calm Calm - N/A   Overcast
6:12 AM 66.2 °F 66.2 °F 100% 29.84 in 4.0 mi WNW 4.6 mph - N/A   Overcast
6:33 AM 66.2 °F 66.2 °F 100% 29.84 in 5.0 mi NW 5.8 mph - N/A   Overcast
6:53 AM 66.2 °F 66.2 °F 100% 29.85 in 4.0 mi WNW 3.5 mph - N/A   Overcast
7:12 AM 66.6 °F 66.4 °F 99% 29.85 in 5.0 mi WNW 5.8 mph - N/A   Overcast
7:33 AM 66.7 °F 66.4 °F 99% 29.86 in 5.0 mi NW 5.8 mph - N/A   Overcast
7:53 AM 67.1 °F 66.6 °F 98% 29.86 in 5.0 mi WNW 4.6 mph - N/A   Overcast
8:13 AM 67.1 °F 66.6 °F 98% 29.86 in 5.0 mi WNW 3.5 mph - N/A   Overcast
8:32 AM 67.5 °F 67.1 °F 99% 29.86 in 4.0 mi WNW 4.6 mph - N/A Rain Rain
8:53 AM 67.5 °F 67.1 °F 99% 29.87 in 5.0 mi WNW 3.5 mph - N/A Rain Light Rain
9:12 AM 67.3 °F 66.7 °F 98% 29.87 in 2.5 mi Calm Calm - 0.06 in Rain Heavy Rain
9:52 AM 66.0 °F 65.7 °F 99% 29.88 in 2.5 mi West 6.9 mph - 0.54 in Rain Rain
10:12 AM 66.4 °F 66.4 °F 100% 29.88 in 4.0 mi West 5.8 mph - 0.01 in Rain Light Rain
10:32 AM 66.7 °F 66.4 °F 99% 29.88 in 5.0 mi West 4.6 mph - 0.02 in Rain Light Rain
10:52 AM 67.3 °F 66.7 °F 98% 29.89 in 7.0 mi West 6.9 mph - 0.02 in   Overcast
11:12 AM 68.0 °F 67.1 °F 97% 29.89 in 7.0 mi West 6.9 mph - N/A   Overcast
11:33 AM 68.5 °F 67.1 °F 95% 29.88 in 7.0 mi West 4.6 mph - N/A   Overcast
11:53 AM 69.3 °F 67.3 °F 93% 29.88 in 10.0 mi West 8.1 mph - N/A   Overcast
12:12 PM 68.9 °F 67.5 °F 95% 29.88 in 5.0 mi WSW 6.9 mph - N/A Rain Rain
12:32 PM 69.8 °F 67.8 °F 93% 29.89 in 10.0 mi SW 5.8 mph - 0.01 in   Overcast
12:53 PM 70.2 °F 67.8 °F 92% 29.88 in 10.0 mi West 6.9 mph - 0.01 in Rain Light Rain
1:13 PM 70.3 °F 67.5 °F 91% 29.88 in 10.0 mi WSW 5.8 mph - N/A Rain Light Rain
1:32 PM 73.0 °F 68.4 °F 85% 29.88 in 10.0 mi West 6.9 mph - N/A   Mostly Cloudy
1:53 PM 74.1 °F 68.2 °F 82% 29.88 in 10.0 mi West 9.2 mph - N/A   Scattered Clouds
2:12 PM 74.1 °F 68.2 °F 82% 29.88 in 10.0 mi West 9.2 mph - N/A   Scattered Clouds
2:32 PM 75.2 °F 68.5 °F 80% 29.88 in 10.0 mi SW 8.1 mph - N/A   Scattered Clouds
2:52 PM 73.4 °F 67.3 °F 81% 29.88 in 10.0 mi WSW 6.9 mph - N/A   Scattered Clouds
3:12 PM 72.3 °F 66.6 °F 82% 29.88 in 10.0 mi WSW 5.8 mph - N/A   Scattered Clouds
3:33 PM 74.5 °F 66.9 °F 77% 29.88 in 10.0 mi WSW 9.2 mph - N/A   Scattered Clouds
3:52 PM 74.5 °F 68.0 °F 80% 29.87 in 10.0 mi West 8.1 mph - N/A   Scattered Clouds
4:12 PM 74.1 °F 66.6 °F 77% 29.87 in 10.0 mi WSW 8.1 mph - N/A   Scattered Clouds
4:33 PM 73.9 °F 67.3 °F 80% 29.87 in 10.0 mi WSW 9.2 mph - N/A   Scattered Clouds
4:53 PM 73.8 °F 66.7 °F 79% 29.87 in 10.0 mi WSW 8.1 mph - N/A   Mostly Cloudy
5:12 PM 74.1 °F 66.0 °F 76% 29.87 in 10.0 mi WSW 5.8 mph - N/A   Scattered Clouds
5:33 PM 73.2 °F 66.2 °F 79% 29.87 in 10.0 mi West 8.1 mph - N/A   Mostly Cloudy
5:52 PM 73.8 °F 66.7 °F 79% 29.86 in 10.0 mi SW 6.9 mph - N/A   Mostly Cloudy
6:13 PM 72.9 °F 66.0 °F 79% 29.87 in 10.0 mi SW 6.9 mph - N/A   Scattered Clouds
6:33 PM 72.7 °F 65.1 °F 77% 29.86 in 10.0 mi WSW 6.9 mph - N/A   Scattered Clouds
6:52 PM 72.0 °F 64.9 °F 78% 29.86 in 10.0 mi West 8.1 mph - N/A   Clear
7:13 PM 70.7 °F 64.6 °F 81% 29.86 in 10.0 mi West 4.6 mph - N/A   Clear
7:32 PM 69.8 °F 65.3 °F 86% 29.87 in 10.0 mi West 3.5 mph - N/A   Clear
7:52 PM 68.7 °F 65.3 °F 89% 29.87 in 10.0 mi Calm Calm - N/A   Clear
8:33 PM 67.3 °F 65.3 °F 93% 29.89 in 10.0 mi WSW 3.5 mph - N/A   Mostly Cloudy
8:52 PM 66.6 °F 64.9 °F 95% 29.88 in 10.0 mi Calm Calm - N/A   Mostly Cloudy
9:12 PM 64.8 °F 64.2 °F 98% 29.88 in 10.0 mi Calm Calm - N/A   Scattered Clouds
9:33 PM 64.2 °F 63.7 °F 98% 29.88 in 5.0 mi Calm Calm - N/A   Clear
9:52 PM 63.9 °F 63.5 °F 99% 29.88 in 7.0 mi Calm Calm - N/A   Clear
10:12 PM 63.0 °F 62.8 °F 99% 29.88 in 5.0 mi Calm Calm - N/A   Clear
10:32 PM 62.6 °F 62.6 °F 100% 29.88 in 1.5 mi Calm Calm - N/A   Mist
10:53 PM 62.6 °F 62.6 °F 100% 29.87 in 3.0 mi SE 3.5 mph - N/A   Clear
11:12 PM 62.2 °F 62.2 °F 100% 29.88 in 3.0 mi Calm Calm - N/A   Clear
11:33 PM 61.2 °F 61.2 °F 100% 29.87 in 4.0 mi Calm Calm - N/A   Clear
11:53 PM 61.2 °F 61.2 °F 100% 29.87 in 2.5 mi Calm Calm - N/A   Clear